Zurück zum Katalog

WESTFORD NEEDLES

LostPO
NORAD 3239·DEBRIS·🇺🇸 United States

Gestartet May 9, 1963 von Vandenberg Space Force Base

Loading…

Nächste Überflüge (nächste 24 Stunden)

TLE

VeraltetSource: Space-Track

Epoche: Nov 29, 2019, 10:53 UTC

1 03239U 63014BD  19333.45411021 -.00000305  00000-0 -14444+0 0  9994
2 03239  87.3469  62.6347 0025072  35.8756 324.3776  8.65338496786661

Verfolge WESTFORD NEEDLES in Echtzeit mit AllMySat

Download on the App Store